3 Gehege Außen am Haus Messungen

Zurück zum Überblick

Zeitpunkt Temperatur Luftfeuchte
28.05.2020 20:32:03 23,9 C 43,0%
28.05.2020 20:25:02 24,0 C 43,0%
28.05.2020 20:18:00 24,0 C 42,0%
28.05.2020 20:11:00 24,1 C 42,0%
28.05.2020 20:03:57 24,2 C 42,0%
28.05.2020 19:56:55 24,2 C 42,0%
28.05.2020 19:49:54 24,3 C 42,0%
28.05.2020 19:42:53 24,4 C 42,0%
28.05.2020 19:35:53 24,5 C 42,0%
28.05.2020 19:28:49 24,5 C 42,0%
28.05.2020 19:21:48 24,6 C 42,0%
28.05.2020 19:14:45 24,6 C 41,0%
28.05.2020 19:07:45 24,6 C 41,0%
28.05.2020 19:00:43 24,7 C 41,0%
28.05.2020 18:53:43 24,7 C 41,0%
28.05.2020 18:46:40 24,8 C 41,0%
28.05.2020 18:39:38 24,9 C 41,0%
28.05.2020 18:32:37 24,9 C 41,0%
28.05.2020 18:25:35 24,9 C 41,0%
28.05.2020 18:18:33 25,0 C 41,0%
28.05.2020 18:11:31 25,1 C 41,0%
28.05.2020 18:04:27 25,1 C 41,0%
28.05.2020 17:57:27 25,2 C 41,0%
28.05.2020 17:50:25 25,2 C 41,0%
28.05.2020 17:43:23 25,2 C 41,0%
28.05.2020 17:36:22 25,2 C 41,0%
28.05.2020 17:29:19 25,2 C 41,0%
28.05.2020 17:22:16 25,3 C 41,0%
28.05.2020 17:15:14 25,3 C 41,0%
28.05.2020 17:08:13 25,3 C 41,0%
28.05.2020 17:01:12 25,3 C 41,0%
28.05.2020 16:54:09 25,4 C 41,0%
28.05.2020 16:47:07 25,5 C 42,0%
28.05.2020 16:40:06 25,5 C 42,0%
28.05.2020 16:33:04 25,6 C 42,0%
28.05.2020 16:26:01 25,6 C 42,0%
28.05.2020 16:18:58 25,6 C 43,0%
28.05.2020 16:11:56 25,7 C 43,0%
28.05.2020 16:04:55 25,7 C 43,0%
28.05.2020 15:57:51 25,8 C 42,0%
28.05.2020 15:50:49 25,8 C 42,0%
28.05.2020 15:43:47 25,8 C 42,0%
28.05.2020 15:36:44 25,8 C 42,0%
28.05.2020 15:29:43 25,8 C 42,0%
28.05.2020 15:22:42 25,8 C 42,0%
28.05.2020 15:15:38 25,8 C 43,0%
28.05.2020 15:08:36 25,8 C 43,0%
28.05.2020 15:01:33 25,7 C 43,0%
28.05.2020 14:54:32 25,7 C 43,0%
28.05.2020 14:47:31 25,8 C 43,0%
28.05.2020 14:40:28 25,7 C 43,0%
28.05.2020 14:33:28 25,7 C 43,0%
28.05.2020 14:26:24 25,6 C 43,0%
28.05.2020 14:19:21 25,7 C 43,0%
28.05.2020 14:12:19 25,7 C 43,0%
28.05.2020 14:05:17 25,7 C 43,0%
28.05.2020 13:58:17 25,6 C 43,0%
28.05.2020 13:51:15 25,5 C 43,0%
28.05.2020 13:44:11 25,6 C 43,0%
28.05.2020 13:37:11 25,5 C 43,0%
28.05.2020 13:30:10 25,5 C 43,0%
28.05.2020 13:23:07 25,5 C 43,0%
28.05.2020 13:16:06 25,5 C 43,0%
28.05.2020 13:09:05 25,3 C 44,0%
28.05.2020 13:02:01 25,2 C 44,0%
28.05.2020 12:54:59 25,1 C 44,0%
28.05.2020 12:47:59 25,0 C 44,0%
28.05.2020 12:40:57 24,9 C 45,0%
28.05.2020 12:33:55 24,8 C 45,0%
28.05.2020 12:26:53 24,8 C 45,0%
28.05.2020 12:19:52 24,7 C 45,0%
28.05.2020 12:12:49 24,6 C 46,0%
28.05.2020 12:05:47 24,5 C 46,0%
28.05.2020 11:58:44 24,4 C 46,0%
28.05.2020 11:51:41 24,3 C 46,0%
28.05.2020 11:44:40 24,0 C 46,0%
28.05.2020 11:37:38 23,9 C 47,0%
28.05.2020 11:30:35 23,7 C 47,0%
28.05.2020 11:23:34 23,6 C 47,0%
28.05.2020 11:16:32 23,4 C 48,0%
28.05.2020 11:09:31 23,4 C 48,0%
28.05.2020 11:02:30 23,2 C 48,0%
28.05.2020 10:55:29 22,9 C 48,0%
28.05.2020 10:48:27 22,8 C 48,0%
28.05.2020 10:41:24 22,7 C 49,0%
28.05.2020 10:34:21 22,8 C 49,0%
28.05.2020 10:27:19 22,7 C 49,0%
28.05.2020 10:20:18 22,4 C 49,0%
28.05.2020 10:13:17 22,2 C 49,0%
28.05.2020 10:06:16 22,2 C 49,0%
28.05.2020 09:59:15 22,2 C 49,0%
28.05.2020 09:52:12 22,0 C 49,0%
28.05.2020 09:45:10 21,8 C 50,0%
28.05.2020 09:38:07 21,7 C 50,0%
28.05.2020 09:31:06 21,6 C 50,0%
28.05.2020 09:24:05 21,5 C 50,0%
28.05.2020 09:17:02 21,5 C 50,0%
28.05.2020 09:09:58 21,3 C 51,0%
28.05.2020 09:02:58 21,0 C 51,0%
28.05.2020 08:55:55 20,5 C 51,0%
28.05.2020 08:48:52 20,2 C 51,0%
28.05.2020 08:41:50 19,9 C 51,0%
28.05.2020 08:34:47 19,8 C 51,0%
28.05.2020 08:27:47 19,8 C 51,0%
28.05.2020 08:20:46 19,7 C 51,0%
28.05.2020 08:13:42 19,7 C 51,0%
28.05.2020 08:06:41 19,6 C 51,0%
28.05.2020 07:59:38 19,5 C 51,0%
28.05.2020 07:52:35 19,5 C 51,0%
28.05.2020 07:45:32 19,4 C 51,0%
28.05.2020 07:38:29 19,4 C 51,0%
28.05.2020 07:31:28 19,5 C 51,0%
28.05.2020 07:24:24 19,6 C 51,0%
28.05.2020 07:17:22 19,5 C 51,0%
28.05.2020 07:10:21 19,4 C 51,0%
28.05.2020 07:03:19 19,5 C 51,0%
28.05.2020 06:56:17 19,4 C 51,0%
28.05.2020 06:49:16 19,3 C 51,0%
28.05.2020 06:42:14 19,2 C 51,0%
28.05.2020 06:35:13 19,3 C 50,0%
28.05.2020 06:28:11 19,3 C 50,0%
28.05.2020 06:21:10 19,3 C 50,0%
28.05.2020 06:14:09 19,3 C 50,0%
28.05.2020 06:07:06 19,3 C 50,0%
28.05.2020 06:00:03 19,3 C 50,0%
28.05.2020 05:53:00 19,4 C 50,0%
28.05.2020 05:45:58 19,4 C 50,0%
28.05.2020 05:38:57 19,4 C 50,0%
28.05.2020 05:31:54 19,4 C 50,0%
28.05.2020 05:24:51 19,5 C 50,0%
28.05.2020 05:17:48 19,5 C 50,0%
28.05.2020 05:10:46 19,5 C 50,0%
28.05.2020 05:03:44 19,6 C 50,0%
28.05.2020 04:56:42 19,6 C 50,0%
28.05.2020 04:49:40 19,6 C 50,0%
28.05.2020 04:42:38 19,6 C 50,0%
28.05.2020 04:35:38 19,7 C 50,0%
28.05.2020 04:28:36 19,7 C 50,0%
28.05.2020 04:21:35 19,7 C 49,0%
28.05.2020 04:14:34 19,8 C 49,0%
28.05.2020 04:07:33 19,8 C 49,0%
28.05.2020 04:00:32 19,9 C 49,0%
28.05.2020 03:53:30 19,9 C 49,0%
28.05.2020 03:46:27 19,9 C 49,0%
28.05.2020 03:39:27 19,9 C 49,0%
28.05.2020 03:32:24 20,0 C 48,0%
28.05.2020 03:25:23 20,1 C 48,0%
28.05.2020 03:18:20 20,1 C 48,0%
28.05.2020 03:11:18 20,1 C 48,0%
28.05.2020 03:04:18 20,1 C 48,0%
28.05.2020 02:57:17 20,1 C 48,0%
28.05.2020 02:50:16 20,2 C 48,0%
28.05.2020 02:43:12 20,2 C 48,0%
28.05.2020 02:36:11 20,2 C 48,0%
28.05.2020 02:29:09 20,2 C 48,0%
28.05.2020 02:22:08 20,3 C 48,0%
28.05.2020 02:15:06 20,3 C 48,0%
28.05.2020 02:08:06 20,3 C 48,0%
28.05.2020 02:01:03 20,4 C 48,0%
28.05.2020 01:54:00 20,4 C 48,0%
28.05.2020 01:46:57 20,4 C 47,0%
28.05.2020 01:39:54 20,5 C 47,0%
28.05.2020 01:32:51 20,5 C 47,0%
28.05.2020 01:25:51 20,5 C 47,0%
28.05.2020 01:18:50 20,5 C 47,0%
28.05.2020 01:11:48 20,6 C 47,0%
28.05.2020 01:04:47 20,6 C 47,0%
28.05.2020 00:57:47 20,7 C 47,0%
28.05.2020 00:50:44 20,7 C 47,0%
28.05.2020 00:43:41 20,8 C 47,0%
28.05.2020 00:36:39 20,8 C 47,0%
28.05.2020 00:29:38 20,8 C 47,0%
28.05.2020 00:22:35 20,9 C 47,0%
28.05.2020 00:15:34 20,9 C 47,0%
28.05.2020 00:08:32 21,0 C 46,0%
28.05.2020 00:01:31 21,1 C 46,0%